User: anonymous
Location: Unspecified
(0.0000°N, 0.0000°E)
Time: 04:04:25
(UTC+00:00)
Language:

Aussat K1 - Orbit

View from above orbital plane
View from above orbital plane
View from above satellite
View from above satellite

Ground track
Ground track

The orbit data is extracted from the following two-line orbital elements,

1 15993U 85076B   14260.87889233 -.00000209  00000-0  00000+0 0  8387
2 15993 014.8744 018.1971 0002919 182.4552 209.4407 00.99757122 76788
Epoch (UTC): 17 September 2014 21:05:36
Eccentricity: 0.0002919
inclination: 14.8744°
perigee height: 35919 km
apogee height: 35943 km
right ascension of ascending node: 18.1971°
argument of perigee: 182.4552°
revolutions per day: 0.99757122
mean anomaly at epoch: 209.4407°
orbit number at epoch: 7678

The dashed part of the orbit path shows where the satellite is in the earth's shadow,  

DLR